Flag for Costa Rica Weather past 2 weeks in Alajuela, Costa Rica

Now
70 °F

Clear.


Feels Like: 70 °F
Forecast: 66 / 78 °F
Wind: 8 mph from East

Location: Juan Santamaria

Current Time: Sep 16, 2014 at 4:25:27 AM

Latest Report: Sep 16, 2014 at 4:00 AM


Visibility: 10 mi

Pressure: 30.03 "Hg

Humidity: 78%

Dew point: 63 °F

Location of AlajuelaLocation

Historic Weather in Alajuela — Graph

°F

Alajuela temperature yesterday

Maximum temperature yesterday: 81 °F (at 10:00 AM)
Minimum temperature yesterday: 66 °F (at 1:00 AM)
Average temperature yesterday: 72 °F

Past Weeks' High & Low Weather Summary

 TemperatureHumidityPressure
High86 °F (Sep 1, 3:00 PM)100% (Sep 2, 8:00 PM)30.14 "Hg (Sep 2, 8:00 PM)
Low64 °F (Sep 4, 2:00 AM)40% (Sep 1, 3:00 PM)29.90 "Hg (Sep 11, 3:00 PM)
Average72 °F81%29.99 "Hg
* Reported Sep 1 3:00 AM — Sep 16 3:00 AM, Alajuela, Weather by CustomWeather, © 2014

Note: Actual official high and low records may vary slightly from our data, if they occured in-between our weather recording intervals... More about our weather records

Advertising

Alajuela weather history for previous 24 hours

 ConditionsComfort  
Time TempWeatherWind HumidityBarometerVisibility
3:00 AM
Sep 16
68 °FPassing clouds.5 mph88%30.03 "HgN/A
2:00 AM70 °FPassing clouds.7 mph83%30.05 "HgN/A
1:00 AM68 °FPartly cloudy.5 mph100%30.07 "HgN/A
12:00 AM70 °FFog.No wind94%30.09 "HgN/A
11:00 PM
Sep 15
70 °FFog.No wind94%30.13 "Hg5 mi
10:00 PM70 °FFog.No wind94%30.14 "HgN/A
9:00 PM70 °FFog.No wind94%30.13 "Hg5 mi
8:00 PM70 °FFog.5 mph94%30.10 "Hg2 mi
7:00 PM70 °FFog.3 mph100%30.08 "Hg2 mi
6:00 PM70 °FFog.6 mph100%30.05 "Hg2 mi
5:00 PM72 °FRain. Fog.5 mph94%30.03 "Hg2 mi
4:36 PM72 °FRain. Fog.6 mph94%30.03 "Hg2 mi
4:00 PM73 °FFog.7 mph89%30.02 "Hg5 mi
3:00 PM73 °FBroken clouds.8 mph89%30.02 "HgN/A
2:00 PM75 °FScattered clouds.7 mph83%30.03 "HgN/A
1:00 PM77 °FScattered showers. Broken clouds.7 mph79%30.06 "HgN/A
12:00 PM77 °FRain. Partly sunny.7 mph74%30.07 "HgN/A
11:00 AM81 °FBroken clouds.9 mph58%30.08 "HgN/A
10:00 AM81 °FPartly sunny.8 mph58%30.09 "HgN/A
9:00 AM77 °FBroken clouds.9 mph61%30.08 "HgN/A
8:00 AM73 °FSunny.8 mph69%30.07 "Hg10 mi
7:00 AM70 °FSunny.8 mph78%30.07 "Hg10 mi
6:00 AM68 °FSunny.9 mph83%30.05 "Hg10 mi
5:00 AM68 °FClear.9 mph83%30.03 "Hg10 mi
4:00 AM68 °FClear.8 mph88%30.04 "Hg10 mi
Weather by CustomWeather, © 2014

See weather overviewHow to use our weather pages